Powrót do katalogu

STARLINK-30830

AktywnyŁącznośćVLEO
NORAD 58194·PAYLOAD·🇺🇸 United States

Wystrzelony Oct 30, 2023 z Cape Canaveral Space Force Station

Loading…

Następne Przeloty (najbliższe 24 godziny)

TLE

ŚwieżeSource: CelesTrak SupGP

Epoka: Sep 15, 2026, 01:43 UTC

1 58194C 23167V   26258.07201389  .00009191  00000+0  33291-3 0  2587
2 58194  43.0004 153.5173 0001242 275.2005  46.4611 15.27571752    10

Śledź STARLINK-30830 w czasie rzeczywistym z AllMySat

Download on the App Store